Time,TemperatureF,DewpointF,PressureIn,WindDirection,WindDirectionDegrees,WindSpeedMPH,WindSpeedGustMPH,Humidity,HourlyPrecipIn,Conditions,Clouds,dailyrainin,SolarRadiationWatts/m^2,SoftwareType,DateUTC
2013-04-23 00:01:00,51.0,19.0,-100.00,SSE,157,4.0,18.0,28,-99.99,,,0.00,0.000000,,2013-04-23 07:01:00,
2013-04-23 00:22:00,51.0,17.0,-100.00,South,175,4.0,17.0,26,0.00,,,0.00,0.000000,,2013-04-23 07:22:00,
2013-04-23 00:32:00,51.0,17.0,-100.00,South,175,4.0,17.0,26,0.00,,,0.00,0.000000,,2013-04-23 07:32:00,
2013-04-23 00:42:00,51.0,17.0,-100.00,South,175,4.0,17.0,26,0.00,,,0.00,0.000000,,2013-04-23 07:42:00,
2013-04-23 00:52:00,51.0,17.0,-100.00,South,175,4.0,17.0,26,0.00,,,0.00,0.000000,,2013-04-23 07:52:00,
2013-04-23 01:01:00,51.0,17.0,-100.00,South,175,4.0,17.0,26,0.00,,,0.00,0.000000,,2013-04-23 08:01:00,
2013-04-23 01:32:00,50.0,15.0,-100.00,SSE,168,5.0,17.0,24,0.00,,,0.00,0.000000,,2013-04-23 08:32:00,
2013-04-23 01:42:00,50.0,15.0,-100.00,SSE,168,5.0,17.0,24,0.00,,,0.00,0.000000,,2013-04-23 08:42:00,
2013-04-23 01:52:00,50.0,15.0,-100.00,SSE,168,5.0,17.0,24,0.00,,,0.00,0.000000,,2013-04-23 08:52:00,
2013-04-23 02:01:00,50.0,15.0,-100.00,SSE,168,5.0,17.0,24,0.00,,,0.00,0.000000,,2013-04-23 09:01:00,
2013-04-23 02:02:00,48.0,11.0,-100.00,NW,320,2.0,23.0,22,0.00,,,0.00,0.000000,,2013-04-23 09:02:00,
2013-04-23 02:33:00,48.0,11.0,-100.00,NW,320,2.0,23.0,22,0.00,,,0.00,0.000000,,2013-04-23 09:33:00,
2013-04-23 02:43:00,48.0,11.0,-100.00,NW,320,2.0,23.0,22,0.00,,,0.00,0.000000,,2013-04-23 09:43:00,
2013-04-23 02:53:00,48.0,11.0,-100.00,NW,320,2.0,23.0,22,0.00,,,0.00,0.000000,,2013-04-23 09:53:00,
2013-04-23 03:02:00,44.0,9.0,-100.00,SW,236,3.0,12.0,23,0.00,,,0.00,0.000000,,2013-04-23 10:02:00,
2013-04-23 03:33:00,44.0,9.0,-100.00,SW,236,3.0,12.0,23,0.00,,,0.00,0.000000,,2013-04-23 10:33:00,
2013-04-23 03:42:00,44.0,9.0,-100.00,SW,236,3.0,12.0,23,0.00,,,0.00,0.000000,,2013-04-23 10:42:00,
2013-04-23 03:52:00,44.0,9.0,-100.00,SW,236,3.0,12.0,23,0.00,,,0.00,0.000000,,2013-04-23 10:52:00,
2013-04-23 04:22:00,45.0,9.0,-100.00,WSW,254,1.0,13.0,23,0.00,,,0.00,0.000000,,2013-04-23 11:22:00,
2013-04-23 04:32:00,45.0,9.0,-100.00,WSW,254,1.0,13.0,23,0.00,,,0.00,0.000000,,2013-04-23 11:32:00,
2013-04-23 04:43:00,45.0,9.0,-100.00,WSW,254,1.0,13.0,23,0.00,,,0.00,0.000000,,2013-04-23 11:43:00,
2013-04-23 04:53:00,45.0,9.0,-100.00,WSW,254,1.0,13.0,23,0.00,,,0.00,0.000000,,2013-04-23 11:53:00,
2013-04-23 05:01:00,45.0,9.0,-100.00,WSW,254,1.0,13.0,23,0.00,,,0.00,0.000000,,2013-04-23 12:01:00,
2013-04-23 05:32:00,42.0,7.0,-100.00,South,190,1.0,14.0,23,0.00,,,0.00,0.000000,,2013-04-23 12:32:00,
2013-04-23 05:42:00,42.0,7.0,-100.00,South,190,1.0,14.0,23,0.00,,,0.00,0.000000,,2013-04-23 12:42:00,
2013-04-23 05:52:00,42.0,7.0,-100.00,South,190,1.0,14.0,23,0.00,,,0.00,0.000000,,2013-04-23 12:52:00,
2013-04-23 06:01:00,42.0,7.0,-100.00,South,190,1.0,14.0,23,0.00,,,0.00,0.000000,,2013-04-23 13:01:00,
2013-04-23 06:22:00,39.0,4.0,-100.00,SSE,154,2.0,11.0,23,0.00,,,0.00,0.000000,,2013-04-23 13:22:00,
2013-04-23 06:32:00,39.0,4.0,-100.00,SSE,154,2.0,11.0,23,0.00,,,0.00,0.000000,,2013-04-23 13:32:00,
2013-04-23 06:42:00,39.0,4.0,-100.00,SSE,154,2.0,11.0,23,0.00,,,0.00,0.000000,,2013-04-23 13:42:00,
2013-04-23 06:52:00,39.0,4.0,-100.00,SSE,154,2.0,11.0,23,0.00,,,0.00,0.000000,,2013-04-23 13:52:00,
2013-04-23 07:01:00,39.0,4.0,-100.00,SSE,154,2.0,11.0,23,0.00,,,0.00,0.000000,,2013-04-23 14:01:00,
2013-04-23 07:32:00,42.0,2.0,-100.00,SSW,201,2.0,16.0,18,0.00,,,0.00,12.000000,,2013-04-23 14:32:00,
2013-04-23 07:42:00,42.0,2.0,-100.00,SSW,201,2.0,16.0,18,0.00,,,0.00,12.000000,,2013-04-23 14:42:00,
2013-04-23 07:52:00,42.0,2.0,-100.00,SSW,201,2.0,16.0,18,0.00,,,0.00,12.000000,,2013-04-23 14:52:00,
2013-04-23 08:01:00,42.0,2.0,-100.00,SSW,201,2.0,16.0,18,0.00,,,0.00,12.000000,,2013-04-23 15:01:00,
2013-04-23 08:02:00,48.0,11.0,-100.00,North,349,6.0,8.0,22,0.00,,,0.00,207.000000,,2013-04-23 15:02:00,
2013-04-23 08:32:00,48.0,11.0,-100.00,North,349,6.0,8.0,22,0.00,,,0.00,207.000000,,2013-04-23 15:32:00,
2013-04-23 08:43:00,48.0,11.0,-100.00,North,349,6.0,8.0,22,0.00,,,0.00,207.000000,,2013-04-23 15:43:00,
2013-04-23 08:53:00,48.0,11.0,-100.00,North,349,6.0,8.0,22,0.00,,,0.00,207.000000,,2013-04-23 15:53:00,
2013-04-23 09:02:00,54.0,7.0,-100.00,ESE,107,8.0,21.0,15,0.00,,,0.00,511.000000,,2013-04-23 16:02:00,
2013-04-23 09:34:00,54.0,7.0,-100.00,ESE,107,8.0,21.0,15,0.00,,,0.00,511.000000,,2013-04-23 16:34:00,
2013-04-23 09:43:00,54.0,7.0,-100.00,ESE,107,8.0,21.0,15,0.00,,,0.00,511.000000,,2013-04-23 16:43:00,
2013-04-23 09:52:00,54.0,7.0,-100.00,ESE,107,8.0,21.0,15,0.00,,,0.00,511.000000,,2013-04-23 16:52:00,
2013-04-23 10:33:00,57.0,10.0,-100.00,North,358,2.0,17.0,15,0.00,,,0.00,727.000000,,2013-04-23 17:33:00,
2013-04-23 10:43:00,57.0,10.0,-100.00,North,358,2.0,17.0,15,0.00,,,0.00,727.000000,,2013-04-23 17:43:00,
2013-04-23 10:53:00,57.0,10.0,-100.00,North,358,2.0,17.0,15,0.00,,,0.00,727.000000,,2013-04-23 17:53:00,
2013-04-23 11:01:00,57.0,10.0,-100.00,North,358,2.0,17.0,15,0.00,,,0.00,727.000000,,2013-04-23 18:01:00,
2013-04-23 11:02:00,63.0,15.0,-100.00,East,98,2.0,11.0,15,0.00,,,0.00,359.000000,,2013-04-23 18:02:00,
2013-04-23 11:22:00,63.0,15.0,-100.00,East,98,2.0,11.0,15,0.00,,,0.00,359.000000,,2013-04-23 18:22:00,
2013-04-23 11:32:00,63.0,15.0,-100.00,East,98,2.0,11.0,15,0.00,,,0.00,359.000000,,2013-04-23 18:32:00,
2013-04-23 11:42:00,63.0,15.0,-100.00,East,98,2.0,11.0,15,0.00,,,0.00,359.000000,,2013-04-23 18:42:00,
2013-04-23 11:52:00,63.0,15.0,-100.00,East,98,2.0,11.0,15,0.00,,,0.00,359.000000,,2013-04-23 18:52:00,
2013-04-23 12:22:00,72.0,18.0,-100.00,NNW,342,2.0,13.0,13,0.00,,,0.00,970.000000,,2013-04-23 19:22:00,
2013-04-23 12:32:00,72.0,18.0,-100.00,NNW,342,2.0,13.0,13,0.00,,,0.00,970.000000,,2013-04-23 19:32:00,
2013-04-23 13:32:00,76.0,18.0,-100.00,WNW,295,3.0,8.0,11,0.00,,,0.00,1120.000000,,2013-04-23 20:32:00,
2013-04-23 13:42:00,76.0,18.0,-100.00,WNW,295,3.0,8.0,11,0.00,,,0.00,1120.000000,,2013-04-23 20:42:00,
2013-04-23 13:52:00,76.0,18.0,-100.00,WNW,295,3.0,8.0,11,0.00,,,0.00,1120.000000,,2013-04-23 20:52:00,
2013-04-23 14:01:00,76.0,18.0,-100.00,WNW,295,3.0,8.0,11,0.00,,,0.00,1120.000000,,2013-04-23 21:01:00,
2013-04-23 14:02:00,74.0,28.0,-100.00,NNW,330,5.0,14.0,18,0.00,,,0.00,1107.000000,,2013-04-23 21:02:00,
2013-04-23 14:33:00,74.0,28.0,-100.00,NNW,330,5.0,14.0,18,0.00,,,0.00,1107.000000,,2013-04-23 21:33:00,
2013-04-23 14:43:00,74.0,28.0,-100.00,NNW,330,5.0,14.0,18,0.00,,,0.00,1107.000000,,2013-04-23 21:43:00,
2013-04-23 14:52:00,74.0,28.0,-100.00,NNW,330,5.0,14.0,18,0.00,,,0.00,1107.000000,,2013-04-23 21:52:00,
2013-04-23 15:02:00,73.0,30.0,-100.00,NNW,339,5.0,14.0,20,0.00,,,0.00,1027.000000,,2013-04-23 22:02:00,
2013-04-23 15:23:00,73.0,30.0,-100.00,NNW,339,5.0,14.0,20,0.00,,,0.00,1027.000000,,2013-04-23 22:23:00,
2013-04-23 15:33:00,73.0,30.0,-100.00,NNW,339,5.0,14.0,20,0.00,,,0.00,1027.000000,,2013-04-23 22:33:00,
2013-04-23 15:42:00,73.0,30.0,-100.00,NNW,339,5.0,14.0,20,0.00,,,0.00,1027.000000,,2013-04-23 22:42:00,
2013-04-23 15:52:00,73.0,30.0,-100.00,NNW,339,5.0,14.0,20,0.00,,,0.00,1027.000000,,2013-04-23 22:52:00,
2013-04-23 16:22:00,73.0,27.0,-100.00,WNW,302,3.0,12.0,18,0.00,,,0.00,897.000000,,2013-04-23 23:22:00,
2013-04-23 16:32:00,73.0,27.0,-100.00,WNW,302,3.0,12.0,18,0.00,,,0.00,897.000000,,2013-04-23 23:32:00,
2013-04-23 16:42:00,73.0,27.0,-100.00,WNW,302,3.0,12.0,18,0.00,,,0.00,897.000000,,2013-04-23 23:42:00,
2013-04-23 16:52:00,73.0,27.0,-100.00,WNW,302,3.0,12.0,18,0.00,,,0.00,897.000000,,2013-04-23 23:52:00,
2013-04-23 17:01:00,73.0,27.0,-100.00,WNW,302,3.0,12.0,18,0.00,,,0.00,897.000000,,2013-04-24 00:01:00,
2013-04-23 17:22:00,71.0,29.0,-100.00,West,261,3.0,10.0,21,0.00,,,0.00,690.000000,,2013-04-24 00:22:00,
2013-04-23 17:32:00,71.0,29.0,-100.00,West,261,3.0,10.0,21,0.00,,,0.00,690.000000,,2013-04-24 00:32:00,
2013-04-23 17:42:00,71.0,29.0,-100.00,West,261,3.0,10.0,21,0.00,,,0.00,690.000000,,2013-04-24 00:42:00,
2013-04-23 17:52:00,71.0,29.0,-100.00,West,261,3.0,10.0,21,0.00,,,0.00,690.000000,,2013-04-24 00:52:00,
2013-04-23 18:01:00,71.0,29.0,-100.00,West,261,3.0,10.0,21,0.00,,,0.00,690.000000,,2013-04-24 01:01:00,
2013-04-23 18:02:00,65.0,28.0,-100.00,NNE,21,2.0,11.0,25,0.00,,,0.00,260.000000,,2013-04-24 01:02:00,
2013-04-23 18:21:00,65.0,28.0,-100.00,NNE,21,2.0,11.0,25,0.00,,,0.00,260.000000,,2013-04-24 01:21:00,
2013-04-23 18:32:00,65.0,28.0,-100.00,NNE,21,2.0,11.0,25,0.00,,,0.00,260.000000,,2013-04-24 01:32:00,
2013-04-23 18:42:00,65.0,28.0,-100.00,NNE,21,2.0,11.0,25,0.00,,,0.00,260.000000,,2013-04-24 01:42:00,
2013-04-23 18:52:00,65.0,28.0,-100.00,NNE,21,2.0,11.0,25,0.00,,,0.00,260.000000,,2013-04-24 01:52:00,
2013-04-23 19:02:00,59.0,26.0,-100.00,NW,320,1.0,9.0,28,0.00,,,0.00,91.000000,,2013-04-24 02:02:00,
2013-04-23 19:42:00,59.0,26.0,-100.00,NW,320,1.0,9.0,28,0.00,,,0.00,91.000000,,2013-04-24 02:42:00,
2013-04-23 19:49:00,59.0,26.0,-100.00,NW,320,1.0,9.0,28,0.00,,,0.00,91.000000,,2013-04-24 02:49:00,
2013-04-23 19:57:00,59.0,26.0,-100.00,NW,320,1.0,9.0,28,0.00,,,0.00,91.000000,,2013-04-24 02:57:00,
2013-04-23 20:02:00,51.0,29.0,-100.00,ENE,78,0.0,5.0,43,0.00,,,0.00,13.000000,,2013-04-24 03:02:00,
2013-04-23 20:43:00,51.0,29.0,-100.00,ENE,78,0.0,5.0,43,0.00,,,0.00,13.000000,,2013-04-24 03:43:00,
2013-04-23 20:53:00,51.0,29.0,-100.00,ENE,78,0.0,5.0,43,0.00,,,0.00,13.000000,,2013-04-24 03:53:00,
2013-04-23 21:02:00,46.0,28.0,-100.00,ENE,71,0.0,4.0,49,0.00,,,0.00,0.000000,,2013-04-24 04:02:00,
2013-04-23 21:33:00,46.0,28.0,-100.00,ENE,71,0.0,4.0,49,0.00,,,0.00,0.000000,,2013-04-24 04:33:00,
2013-04-23 21:43:00,46.0,28.0,-100.00,ENE,71,0.0,4.0,49,0.00,,,0.00,0.000000,,2013-04-24 04:43:00,
2013-04-23 21:52:00,46.0,28.0,-100.00,ENE,71,0.0,4.0,49,0.00,,,0.00,0.000000,,2013-04-24 04:52:00,
2013-04-23 22:02:00,43.0,28.0,-100.00,ENE,66,0.0,3.0,54,0.00,,,0.00,0.000000,,2013-04-24 05:02:00,
2013-04-23 22:32:00,43.0,28.0,-100.00,ENE,66,0.0,3.0,54,0.00,,,0.00,0.000000,,2013-04-24 05:32:00,
2013-04-23 22:42:00,43.0,28.0,-100.00,ENE,66,0.0,3.0,54,0.00,,,0.00,0.000000,,2013-04-24 05:42:00,
2013-04-23 22:52:00,43.0,28.0,-100.00,ENE,66,0.0,3.0,54,0.00,,,0.00,0.000000,,2013-04-24 05:52:00,
2013-04-23 23:02:00,41.0,27.0,-100.00,East,79,0.0,2.0,58,0.00,,,0.00,0.000000,,2013-04-24 06:02:00,
2013-04-23 23:33:00,41.0,27.0,-100.00,East,79,0.0,2.0,58,0.00,,,0.00,0.000000,,2013-04-24 06:33:00,
2013-04-23 23:42:00,41.0,27.0,-100.00,East,79,0.0,2.0,58,0.00,,,0.00,0.000000,,2013-04-24 06:42:00,
2013-04-23 23:52:00,41.0,27.0,-100.00,East,79,0.0,2.0,58,0.00,,,0.00,0.000000,,2013-04-24 06:52:00,